LACUNASAT-3 (46492 NORAD) Tracking and Keplerian Element Data

This shows tracking and keplerian element data for the satellite.

Feedback or suggestion? Click here.




ElementValue
Catalog46492
NameLACUNASAT-3
Epoch Orbit904
Epoch Day332.84477004
Epoch Year2020
RAAN265.8069
Inclination97.6733
Eccentricity0.00197
Argument of Perigee40.1588
Mean Anonmoly320.1135
Mean Motion15.03522679
Decay Rate1.424E-05
L11 46492U 20068G 20332.84477004 .00001424 00000-0 10848-3 0 9990
L22 46492 97.6733 265.8069 0019700 40.1588 320.1135 15.03522679 9049

Live tracking and technical data element details for LACUNASAT-3 (NORAD 46492). LACUNASAT-3 can be tracked NOW for your location showing map with azimuth and elevation plus other details from your city location.

Track the satellite on the map from your city or location and see movement details for azimuth, elevation, latitude, longitude, range, height, and movement on the map or in text.







IsCatalogInMostPopularTable: catalog: 46492, numindb: 13
Update: records affected: 1



GetName: 46492 LACUNASAT-3

Hit Count: updated at: Sun, 29 Nov 2020 10:57:46 GMT